Powrót do katalogu

COSMOS 2491 DEB

LostPO
NORAD 44994·DEBRIS·🇷🇺 Russia

Wystrzelony Dec 25, 2013 z Plesetsk Cosmodrome

Loading…

Następne Przeloty (najbliższe 24 godziny)

TLE

NieaktualneSource: Space-Track

Epoka: Jan 30, 2020, 04:03 UTC

1 44994U 13076Q   20030.16900591 -.00000557  00000-0 -31368-2 0  9995
2 44994  82.4772 180.8201 0108452  36.3094 324.5293 12.61527065  2822

Śledź COSMOS 2491 DEB w czasie rzeczywistym z AllMySat

Download on the App Store